Theta_e
300 303 303 305 306 307 307 307 307 308 307 307 309 311 311 310 309 309 308 308 309 309 309 309 311 311 312 313 314 315 314 314 314 312 308 306 303 302 302 303 303 303 303 303
300 302 305 304 305 306 306 306 306 307 306 304 307 307 307 307 308 307 307 307 307 308 308 307 307 308 310 311 313 314 315 314 314 313 311 308 305 301 302 303 303 303 303 303
307 309 303 302 303 304 305 306 306 306 305 305 304 306 307 308 308 307 306 306 306 306 306 306 306 306 306 308 310 312 314 314 313 313 310 307 304 301 301 302 303 303 303 303
302 307 302 301 302 303 304 305 305 305 305 304 302 305 307 308 307 305 306 305 305 305 305 305 305 304 305 306 306 309 311 312 312 312 310 309 308 303 302 302 303 303 303 303
305 300 300 304 304 302 304 303 304 305 305 304 303 302 306 305 306 307 308 307 307 306 305 304 304 304 305 305 305 306 308 311 311 312 311 310 308 305 302 302 303 303 303 302
303 297 299 301 298 302 300 301 301 301 302 304 304 303 308 309 309 308 307 306 307 306 306 306 306 306 304 303 304 304 305 308 310 310 310 309 308 306 303 302 302 303 302 302
303 300 298 298 299 299 301 302 304 305 305 307 305 303 307 307 307 306 308 308 305 305 305 305 306 306 304 302 303 303 303 305 308 309 309 309 308 307 306 303 302 303 302 302
306 306 300 299 302 302 300 303 308 311 310 308 299 303 307 306 306 305 303 303 304 305 304 303 303 303 302 302 302 302 302 302 303 305 307 307 307 307 306 304 302 302 303 303
304 303 298 297 300 302 301 302 303 305 300 306 306 304 305 306 307 306 305 304 305 303 302 301 301 301 301 301 300 301 301 301 302 304 305 306 306 306 306 304 302 302 303 303
299 304 298 297 297 299 301 302 302 303 308 308 308 308 309 308 307 303 302 301 300 299 298 298 298 299 299 299 299 299 300 301 301 302 304 305 305 306 306 305 303 302 302 302
300 300 300 297 299 301 299 301 302 304 305 308 308 309 303 304 303 301 300 299 298 298 297 297 296 297 298 298 298 298 298 299 300 300 302 303 305 305 306 305 304 303 302 302
298 300 301 302 297 296 300 302 302 305 305 303 305 308 302 301 300 301 300 298 297 296 296 295 295 296 297 297 297 297 297 298 299 299 301 302 303 304 305 305 304 303 302 302
294 300 303 302 299 296 299 299 300 303 302 310 308 308 300 300 300 299 299 297 296 295 294 294 296 296 296 296 296 297 297 297 298 298 299 300 301 302 303 304 303 303 303 302
291 293 297 299 301 300 299 299 300 302 305 305 305 307 302 301 300 298 296 295 294 293 292 292 292 294 295 296 296 297 297 297 297 298 298 299 300 301 302 302 303 303 302 302
291 291 293 293 294 297 303 300 299 301 303 305 304 304 304 301 298 295 294 294 293 291 290 290 290 290 294 296 297 297 297 297 298 298 298 298 299 300 300 301 302 302 302 302
290 291 291 295 294 297 298 300 305 303 300 302 305 307 298 296 294 293 292 292 291 290 288 287 287 287 289 294 296 296 297 298 298 297 298 298 298 299 300 300 300 301 301 301
289 290 292 293 293 295 298 300 301 305 303 304 302 302 300 295 293 291 290 289 288 286 286 284 284 284 286 290 293 294 295 296 298 298 298 297 298 299 299 299 300 301 301 301
289 290 292 294 294 295 297 292 294 294 291 293 294 293 294 293 289 287 286 286 285 285 284 283 284 284 285 287 291 292 294 296 296 297 297 297 298 298 298 299 300 300 300 300
291 291 288 292 296 295 293 292 292 292 291 290 290 290 291 290 289 286 285 284 283 282 282 282 282 283 284 285 286 289 292 294 295 296 296 296 297 297 298 299 299 299 300 300
287 289 292 291 292 294 291 291 291 292 291 289 289 288 289 291 294 287 284 283 282 281 280 279 280 281 282 283 284 286 287 289 292 295 295 295 296 295 296 297 298 299 299 299
287 287 288 289 290 291 290 290 291 293 291 288 287 286 286 287 285 283 282 282 282 281 280 280 280 279 279 281 283 283 284 288 287 289 292 294 295 296 295 296 297 298 298 298
286 287 287 288 289 289 290 290 290 290 289 288 285 284 284 284 283 282 281 281 280 280 281 281 281 281 280 280 280 281 283 284 286 289 289 291 293 294 295 294 295 296 297 297
286 286 286 287 287 289 287 288 286 286 289 285 284 282 281 281 281 280 280 280 280 280 279 280 279 280 280 280 280 280 281 282 284 286 287 289 290 293 294 295 294 294 295 295
286 285 288 287 288 289 286 283 282 282 281 280 279 279 279 278 278 278 278 277 277 278 278 279 279 279 279 279 279 279 279 281 281 283 284 285 288 290 292 293 293 294 293 293
287 286 287 287 288 287 282 280 279 279 279 278 276 276 276 276 276 276 276 276 276 277 277 277 277 277 277 278 278 278 278 280 281 281 282 282 283 284 286 289 291 293 293 292
287 287 287 287 283 283 284 278 278 278 278 277 275 274 274 273 273 273 273 274 274 275 275 276 276 277 278 277 277 277 277 278 279 280 280 281 281 282 283 284 287 290 291 291
Wind_Speed
11 9 20 22 25 28 17 15 22 13 4 6 19 27 23 22 29 25 30 33 36 36 42 35 37 33 38 46 48 47 46 48 51 50 48 46 45 43 40 36 33 31 28 25
6 22 23 21 22 24 25 24 27 18 11 6 20 34 25 21 26 31 32 35 38 41 37 39 43 43 44 42 49 51 51 50 54 53 49 47 46 44 41 38 36 34 31 27
22 26 15 19 17 21 25 27 25 22 9 15 14 30 22 20 30 35 33 37 38 40 39 33 34 40 39 47 48 51 54 52 55 55 52 49 47 45 45 43 42 37 31 29
18 28 14 15 22 23 24 19 21 19 8 11 2 16 20 18 15 12 17 26 33 31 29 28 27 33 35 42 48 50 52 54 54 56 57 56 54 55 53 47 41 38 35 31
16 9 17 21 25 20 13 6 15 16 16 11 16 8 16 4 5 13 19 25 22 20 21 24 25 30 33 31 39 47 51 54 55 58 60 58 56 53 51 49 46 41 38 33
21 3 6 7 1 20 15 8 7 4 5 8 18 13 35 15 12 11 7 7 3 1 4 7 12 19 23 29 35 39 48 53 56 58 61 60 57 55 54 51 48 44 40 37
16 20 6 4 6 4 12 10 5 6 6 11 3 13 28 7 11 11 8 6 7 7 8 12 12 12 17 24 31 34 41 51 55 58 60 60 59 58 54 52 49 47 45 42
9 9 21 16 20 11 17 16 7 12 10 14 6 13 11 6 12 13 9 11 14 10 7 5 5 6 9 16 24 28 35 43 49 54 57 58 58 58 54 50 48 47 46 43
5 8 3 2 6 14 8 13 19 6 1 4 8 11 10 14 14 8 7 5 4 7 8 9 7 6 3 9 16 22 27 35 42 46 50 54 57 58 56 50 46 45 45 42
12 15 2 3 3 6 10 6 7 6 8 11 13 16 12 6 5 5 9 10 12 14 15 14 12 10 6 1 8 14 20 25 34 38 43 49 54 55 54 49 47 46 42 40
11 9 4 1 10 15 8 9 6 3 6 6 7 6 6 4 7 9 11 14 15 17 17 17 17 15 12 7 1 7 12 18 24 31 37 41 47 51 51 48 46 44 41 39
10 7 11 19 1 3 10 14 18 6 8 6 5 4 6 10 10 11 11 14 16 18 17 18 19 18 18 15 8 2 6 11 16 21 29 34 39 43 47 47 46 44 41 39
14 5 5 6 2 1 5 14 9 18 3 15 10 9 4 7 9 10 11 13 15 17 18 19 22 22 21 19 15 10 3 5 10 15 20 26 32 37 42 43 44 43 41 40
13 6 10 10 16 14 6 8 18 16 11 14 14 19 9 9 7 7 11 12 14 17 19 19 21 22 21 20 18 15 10 3 7 10 14 20 25 30 34 37 41 42 41 40
9 10 14 19 21 20 19 9 8 15 22 14 19 17 10 8 8 7 8 11 14 18 20 21 20 21 22 21 19 17 13 9 3 6 10 13 18 22 27 32 35 37 39 38
8 11 16 18 20 14 18 15 17 13 19 22 22 23 11 10 11 9 10 13 15 17 18 18 19 20 23 23 21 20 17 13 8 3 4 9 13 16 20 24 29 32 35 38
8 8 11 16 19 18 11 2 9 9 12 16 19 19 4 6 10 10 10 14 15 15 16 18 18 19 21 22 20 20 19 15 11 7 3 3 8 14 18 20 24 27 31 33
11 14 7 8 9 10 5 14 6 12 16 14 11 10 8 10 17 16 16 15 15 14 14 16 17 18 20 20 17 16 16 15 13 11 8 5 3 8 14 20 24 27 30 33
9 10 5 5 8 10 7 10 7 5 7 12 13 14 8 13 21 20 16 15 14 12 13 15 15 16 18 19 19 17 17 16 14 14 13 11 8 7 9 14 19 24 29 32
15 11 7 5 5 4 4 10 16 6 2 8 9 12 14 5 1 6 14 13 14 13 13 15 14 14 16 18 18 18 18 18 18 17 16 15 13 12 10 10 14 18 23 27
7 5 6 9 6 4 7 12 11 3 3 5 9 11 14 8 4 5 10 13 13 13 15 17 18 16 19 19 17 18 19 20 21 18 17 16 15 14 14 13 13 15 17 22
5 6 6 6 6 4 13 10 6 3 3 2 3 6 6 5 6 8 9 11 13 14 14 14 17 18 19 20 20 19 18 17 17 18 18 17 16 16 17 16 13 14 16 18
5 3 5 4 7 16 5 3 4 7 4 3 2 2 4 4 6 8 8 10 13 14 15 16 18 18 17 19 21 22 20 18 16 14 14 16 17 16 16 17 18 16 14 15
4 4 5 7 4 9 2 2 2 2 5 4 3 2 4 5 7 8 9 9 11 14 17 19 21 21 19 19 20 21 21 20 19 18 16 15 16 16 15 14 15 18 19 17
10 4 6 7 12 5 3 3 2 1 1 2 3 3 3 5 8 10 12 13 14 16 17 20 21 22 23 22 22 22 23 23 22 21 20 18 18 18 18 17 16 14 14 18
12 9 5 9 2 3 6 4 6 6 7 5 6 7 7 8 9 10 13 15 18 19 20 23 24 25 24 25 26 26 25 24 25 26 25 23 21 21 21 20 20 14 13 12
Wind_Direction
194 213 219 214 219 238 262 263 262 268 253 249 254 265 263 267 268 260 257 258 259 257 257 255 250 241 235 232 232 231 229 225 221 217 215 215 214 213 213 213 214 213 214 213
173 231 228 230 228 236 241 254 259 264 252 259 277 276 274 261 261 255 252 252 253 256 255 252 254 243 233 232 230 229 229 227 222 220 218 218 216 215 215 213 214 213 213 213
214 238 208 204 214 223 235 239 250 253 277 256 283 281 277 252 242 254 252 249 252 250 252 249 244 244 237 230 229 228 227 225 223 220 217 215 217 214 212 212 213 212 212 214
234 249 198 195 222 208 239 233 242 248 242 259 237 283 280 277 241 234 244 241 241 246 250 251 239 241 240 236 233 230 228 225 222 219 217 217 217 214 216 216 214 212 213 214
221 204 200 217 223 187 236 175 212 226 233 275 227 258 270 98 255 257 248 246 252 250 251 254 249 250 250 242 233 230 227 226 223 220 219 218 218 220 219 214 212 212 213 213
250 68 219 225 93 188 135 116 101 130 198 240 237 217 278 267 278 263 284 251 199 167 244 255 262 252 236 233 231 230 226 224 223 220 220 219 218 219 219 217 213 211 212 214
236 228 195 178 134 156 192 162 188 210 201 242 182 200 256 319 289 261 271 247 281 288 286 282 278 265 238 226 222 224 224 223 223 221 221 221 220 221 223 221 215 211 211 213
223 234 199 186 216 182 197 189 206 229 221 242 165 225 246 255 265 292 297 280 282 293 324 336 312 280 249 231 223 224 222 221 222 222 222 222 221 222 225 224 218 217 217 217
253 248 196 203 210 189 175 213 234 282 14 273 218 253 269 249 263 311 355 7 34 51 34 32 26 14 292 235 224 223 220 223 226 226 223 222 221 222 223 224 221 221 221 220
282 280 157 145 183 239 214 164 185 218 224 228 245 259 256 236 220 53 50 50 56 52 44 41 41 41 43 229 227 221 223 223 227 226 225 224 222 222 224 225 221 221 222 221
285 242 261 170 211 197 180 202 221 256 231 236 254 239 4 39 87 84 67 61 59 56 46 43 47 48 54 58 151 221 226 223 226 224 224 223 223 223 224 225 223 222 222 220
358 296 261 235 129 295 256 230 203 206 197 233 303 264 60 88 85 87 76 65 56 56 52 47 49 52 57 59 62 103 217 231 233 230 226 225 225 224 224 224 222 221 222 223
1 316 297 230 195 30 227 228 249 243 345 224 220 242 124 116 93 76 73 59 55 50 47 47 50 48 47 53 56 60 105 211 227 227 226 226 226 226 225 224 222 221 223 224
339 295 323 310 320 329 269 224 215 214 228 224 222 235 173 171 129 82 70 58 50 45 40 38 41 42 41 42 48 55 58 95 198 214 222 225 227 228 227 227 224 223 225 226
328 298 306 302 296 298 282 259 251 228 224 221 231 242 206 153 117 75 59 62 55 47 41 34 31 30 35 38 42 44 44 52 92 189 212 223 224 227 229 230 229 228 228 230
300 288 300 289 307 313 315 298 239 236 251 258 249 246 81 108 110 76 57 54 49 44 42 37 32 28 28 34 35 32 34 37 48 91 186 210 217 221 225 227 228 229 230 230
287 284 295 285 298 312 285 331 327 257 229 250 246 256 203 108 69 51 51 60 54 37 32 31 30 25 23 28 33 33 30 30 29 32 46 215 217 217 215 220 222 226 229 231
271 283 251 268 283 260 66 23 26 75 35 12 23 19 29 103 96 67 50 49 43 33 29 27 29 29 24 24 29 39 36 35 33 29 18 354 285 240 230 225 222 223 228 231
329 291 311 285 306 304 22 13 341 338 45 19 20 14 1 131 103 61 44 46 45 38 26 25 25 27 25 22 24 27 30 33 32 31 29 16 350 314 266 244 240 238 234 233
347 329 293 278 290 299 37 327 328 266 111 25 26 24 12 203 91 51 19 27 31 28 28 22 27 31 27 25 22 18 21 24 27 25 20 15 7 351 326 290 260 249 247 245
313 313 329 320 305 281 2 321 317 311 52 42 40 28 31 49 43 21 19 12 10 12 13 11 16 16 15 16 19 14 10 12 13 16 12 10 4 353 348 326 296 271 260 254
291 308 329 318 306 288 358 336 359 330 120 120 75 48 33 36 18 15 11 1 353 356 359 0 359 360 0 1 4 6 9 10 5 357 356 0 1 360 354 350 327 292 275 263
271 286 281 274 282 312 359 13 336 334 197 163 130 36 5 351 349 343 344 336 336 337 341 345 346 347 348 351 353 351 351 354 355 351 342 340 345 353 354 354 347 334 305 280
246 210 242 303 256 298 238 66 14 32 64 42 26 343 340 334 331 326 326 325 324 325 329 331 334 333 335 335 339 340 336 336 339 341 339 333 328 324 332 337 345 349 335 307
263 262 253 257 280 272 189 152 185 119 228 317 322 316 314 298 298 301 304 307 309 312 315 318 321 320 320 322 324 327 325 325 324 326 327 329 327 324 316 314 324 330 332 319
251 243 233 267 198 251 282 257 259 236 239 260 294 300 292 293 286 291 293 297 301 302 306 308 308 306 306 307 311 314 316 314 312 311 314 316 317 318 318 315 305 303 310 310